This demonstration page uses our WeatherBlox Daily Observations layout. Learn more.

Left ArrowRight Arrow

38.20091, -84.87328

Hourly Observations for September 9, 2021

Temp ( °F °C ) Dew Point ( °F °C ) Humidity (%) Winds ( mph kmh ) Pressure ( in mb ) Visibility ( mi km ) Precip ( " mm )
12:53 am 00:53 Clear 60 15.6 58 14.4 93 93 Calm 29.87 1012 10 16 0.00 0.00
1:53 am 01:53 Clear 59 15 57 13.9 93 93 Calm 29.87 1011 10 16 0.00 0.00
2:53 am 02:53 Clear 57 13.9 55 12.8 93 93 Calm 29.87 1011 10 16 0.00 0.00
3:53 am 03:53 Mostly Clear 58 14.4 55 12.8 90 90 NNW 3 6 29.87 1012 10 16 0.00 0.00
4:53 am 04:53 Clear 57 13.9 55 12.8 93 93 Calm 29.88 1012 10 16 0.00 0.00
5:53 am 05:53 Mostly Clear 56 13.3 54 12.2 93 93 NNW 3 6 29.88 1012 10 16 0.00 0.00
6:53 am 06:53 Clear 55 12.8 53 11.7 93 93 Calm 29.90 1013 10 16 0.00 0.00
7:53 am 07:53 Sunny 58 14.4 54 12.2 87 87 NNW 3 6 29.92 1013 10 16 0.00 0.00
8:53 am 08:53 Sunny 62 16.7 56 13.3 80 80 NNW 6 9 29.94 1014 10 16 0.00 0.00
9:12 am 09:12 Mostly Sunny 64 17.8 56 13.3 75 75 NNW 6 9 29.95 1014 10 16 0.00 0.00
9:53 am 09:53 Sunny 68 20 57 13.9 68 68 NNW 5 7 29.95 1014 10 16 0.00 0.00
10:53 am 10:53 Sunny 72 22.2 56 13.3 57 57 VRB 6 9 29.96 1015 10 16 0.00 0.00
11:53 am 11:53 Sunny 75 23.9 56 13.3 52 52 NNW 9 15 29.96 1015 10 16 0.00 0.00
12:53 pm 12:53 Mostly Sunny 76 24.4 53 11.7 45 45 NNW 9 15 29.96 1015 10 16 0.00 0.00
1:53 pm 13:53 Partly Cloudy 77 25 54 12.2 45 45 NNW 10 17 29.96 1015 10 16 0.00 0.00
2:53 pm 14:53 Mostly Cloudy 77 25 53 11.7 43 43 NW 8 13 29.96 1015 10 16 0.00 0.00
3:53 pm 15:53 Sunny 78 25.6 53 11.7 42 42 N 9 15 29.96 1014 10 16 0.00 0.00
4:53 pm 16:53 Mostly Sunny 78 25.6 54 12.2 43 43 N 5 7 29.95 1014 10 16 0.00 0.00
5:53 pm 17:53 Mostly Sunny 75 23.9 55 12.8 50 50 NW 6 9 29.96 1015 10 16 0.00 0.00
6:53 pm 18:53 Sunny 74 23.3 57 13.9 56 56 WNW 3 6 29.96 1015 10 16 0.00 0.00
7:53 pm 19:53 Sunny 68 20 60 15.6 76 76 Calm 29.97 1015 10 16 0.00 0.00
8:53 pm 20:53 Clear 64 17.8 59 15 84 84 Calm 29.99 1016 10 16 0.00 0.00
9:53 pm 21:53 Clear 63 17.2 59 15 87 87 Calm 30.01 1016 10 16 0.00 0.00
10:53 pm 22:53 Clear 61 16.1 58 14.4 90 90 Calm 30.03 1017 10 16 0.00 0.00
11:53 pm 23:53 Clear 60 15.6 58 14.4 93 93 Calm 30.04 1017 10 16 0.00 0.00

Powered by AerisWeather